Location: Zagreb
(45.8000°N, 16.0000°E)
Time: 12:15:34
(UTC+01:00)

Vanguard 1 Rocket - Pass Details

Date: 06 October 2020
Orbit: 656 x 4221 km, 34.3° (Epoch: 28 October)

Event Time Altitude Azimuth Distance (km) Brightness Sun altitude
Rises 18:24:22 0° 250° (WSW) 4,504 13.1 -0.5°
Reaches altitude 10° 18:26:52 10° 245° (WSW) 3,848 12.2 -1.0°
Maximum altitude 18:37:12 53° 172° (S) 2,898 10.0 -2.8°
Drops below altitude 10° 18:56:34 10° 105° (ESE) 6,854 11.2 -6.1°
Enters shadow 18:59:42 - 103° (ESE) 7,537 11.4 -6.7°
Sets 19:02:55 0° 101° (ESE) 8,211 - -7.2°
